CZ-4B DEB

Satellite information

Favourite Embed

Satellite Type and Status

DEBRISIN ORBIT

Key statistics

Satellite CZ-4B DEB at a glance.

Uptime

1572

Days in orbit

Revolutions

≈ 14.0

Per day

Orbit

LEO

Low Earth Orbit

Inclination

66.2

Latest

Satellite identification and parameters

Extended collection of information and parameters for CZ-4B DEB.

Object identification

Identified? True

Debris? True

Object name: CZ-4B DEB

International designator: 2021-043E

Object number (NORAD): 48625

Object ID (CCSDS): 48625

Country: PEOPLES REPUBLIC OF CHINA (PRC)

Current information (Y/N): Y

RCS size: SMALL

Orbital parameters

Period: 103.146 minutes

Inclination: 66.1672 deg

SMA: 7285.526 km

Apoapsis: 928.064 km

Periapsis: 886.717 km

RAAN: 283.7809 deg

Eccentricy: 0.00283765

Argument of periapsis: 75.2913 deg

Mean anomaly: 285.1306 deg

Mean motion: 13.96083601 rev/day

Mean motion (dot): 0.00001621 rev/day2

B* drag term: 0.0012360452 1/REarth

Two-line elements (TLE)

Creation date: Aug. 30, 2025, 3:38 a.m.

Reference frame: TEME

Reference center: EARTH

Epoch: Aug. 29, 2025, 9:40 a.m. UTC

TLE line 0: 0 CZ-4B DEB

TLE line 1: 1 48625U 21043E 25241.40314120 .00001621 00000-0 12360-2 0 9998

TLE line 2: 2 48625 66.1672 283.7809 0028376 75.2913 285.1306 13.96083601217490

Live tracking on map

Real-time ground track for satellite CZ-4B DEB.

In-orbit conjunctions

A list of the most updated potential collisions computed for object CZ-4B DEB.

Target Orbit TCA Probability of collision Miss distance Type
SOLRAD 7A LEO 2024-12-20 09:15:37 0.0001316297 195.0 (m) PAYLOAD
FENGYUN 1C DEB SSO 2024-11-10 08:35:39 0.0008157138 169.0 (m) DEBRIS
SL-14 DEB LEO 2024-11-10 06:52:37 0.0002190917 936.0 (m) DEBRIS

Associated space launch

Haiyang (Chinese: "Ocean"), abbreviated HY, is a marine remote sensing satellite series planned by China.

CZ-4B DEB was lifted into orbit during the mission ‘Long March 4B | Haiyang 2D’, on board a Long March 4B space rocket.

The launch took place on May 19, 2021, 4:03 a.m. from Launch Area 4 (SLS-2 / 603).

For more information about the launch, click the button.

Launch to space Long March 4B | Haiyang 2D
Long March 4B | Haiyang 2D

Agency: N/A

Status: Launch Successful

Launch date: May 19, 2021, 4:03 a.m. UTC

Rocket: Long March 4B

Launch pad: Launch Area 4 (SLS-2 / 603)

Location: Jiuquan Satellite Launch Center, People's Republic of China

...

Latest news about this satellite

News about space launch
China launches Haiyang-2D Oceanography Satellite from Jiuquan

A Chinese Long March 4B rocket took a Haiyang oceanography satellite to orbit early Wednesday morning. Liftoff from the Jiuquan Satellite Launch Center occurred approximately 12:03 PM local time (04:03 UTC) on 19 May.

News about space launch
Chinese Long March rocket launches oceanography satellite

A Long March 4B rocket successfully launched an oceanography satellite Wednesday from northwestern China, hours before officials at a different spaceport scrubbed the planned launch of a cargo ship to deliver supplies to the Chinese space station.


Newsletter sign-up

Weekly statistics, charts and insights to help you stay on top of the space industry.